W1HS Weather Reports


Display with metric or nautical units.
time (UTC)temp
F
wind
direction
speed
MPH
gust
MPH
rain 1hr
in
rain 24hr
in
rain mn
in
humidity
%
barometer
mb
20260509233218 47 0.0 0.0 0.00 0.32 0.32 94 990.2
20260509232219 47 0.0 0.0 0.00 0.32 0.32 94 990.3
20260509231218 48 0.0 0.0 0.00 0.32 0.32 94 990.4
20260509230220 48 0.0 0.0 0.00 0.32 0.32 94 990.3
20260509225218 48 0.0 0.0 0.00 0.32 0.32 94 990.3
20260509224218 48 0.0 1.0 0.00 0.32 0.32 95 990.3
20260509223218 48 0.0 0.0 0.00 0.32 0.32 95 990.2
20260509222219 48 0.0 0.0 0.00 0.32 0.32 95 990.1
20260509221218 48 225 2.0 4.0 0.00 0.32 0.32 95 990.2
20260509220218 47 0.0 0.0 0.00 0.32 0.32 95 990.1
20260509215218 47 225 2.0 4.0 0.01 0.32 0.32 95 990.2
20260509214218 47 0.0 2.0 0.01 0.32 0.32 94 990.3
20260509213218 47 0.0 1.0 0.01 0.32 0.32 94 990.4
20260509212218 47 0.0 0.0 0.02 0.32 0.32 95 990.5
20260509211218 47 0.0 0.0 0.03 0.32 0.32 95 990.6
20260509210218 47 0.0 0.0 0.03 0.32 0.32 94 990.7
20260509205218 47 248 1.0 3.0 0.03 0.31 0.31 94 990.7
20260509204218 47 225 2.0 3.0 0.04 0.31 0.31 94 990.7
20260509203220 47 225 1.0 3.0 0.04 0.31 0.31 94 990.5
20260509202218 47 225 3.0 5.0 0.05 0.30 0.30 94 990.6
20260509201218 47 270 3.0 7.0 0.05 0.29 0.29 94 990.6
20260509200218 47 203 1.0 4.0 0.06 0.29 0.29 94 990.6
20260509195218 47 0.0 0.0 0.05 0.28 0.28 94 990.9
20260509194218 46 180 2.0 4.0 0.05 0.27 0.27 94 991.0
20260509193218 46 0.0 0.0 0.06 0.27 0.27 94 991.0
20260509192218 47 0.0 1.0 0.05 0.25 0.25 94 991.1
20260509191218 47 0.0 0.0 0.05 0.24 0.24 94 991.2
20260509190218 47 270 2.0 3.0 0.05 0.23 0.23 94 991.4
20260509185220 47 0.0 2.0 0.06 0.23 0.23 94 991.6
20260509184218 47 0.0 1.0 0.06 0.22 0.22 95 991.6
20260509183220 47 158 2.0 7.0 0.06 0.21 0.21 94 991.6
20260509182220 47 0.0 0.0 0.06 0.20 0.20 95 991.8
20260509181220 47 0.0 1.0 0.06 0.19 0.19 95 991.7
20260509180222 47 203 1.0 2.0 0.06 0.18 0.18 95 991.7
20260509175220 47 0.0 3.0 0.05 0.17 0.17 95 991.8
20260509174220 46 0.0 0.0 0.04 0.16 0.16 95 991.9
20260509173349 46 0.0 0.0 0.04 0.15 0.15 95 992.0
20260509172520 46 0.0 1.0 0.03 0.14 0.14 95 992.1
20260509171520 46 0.0 1.0 0.03 0.13 0.13 95 992.2
20260509170520 45 0.0 1.0 0.03 0.13 0.13 95 992.2
20260509165522 45 225 2.0 5.0 0.03 0.12 0.12 95 992.3
20260509164519 44 0.0 1.0 0.04 0.12 0.12 94 992.4
20260509163520 44 225 2.0 4.0 0.04 0.11 0.11 94 992.6
20260509162519 44 225 3.0 4.0 0.04 0.11 0.11 94 992.6
20260509161520 44 225 1.0 3.0 0.04 0.10 0.10 94 992.8
20260509160520 43 0.0 2.0 0.05 0.10 0.10 94 992.9
20260509155521 43 225 2.0 4.0 0.05 0.09 0.09 93 993.0
20260509154519 43 225 3.0 4.0 0.04 0.08 0.08 94 993.1
20260509153519 44 225 1.0 2.0 0.04 0.07 0.07 94 993.2
20260509152520 43 0.0 1.0 0.04 0.07 0.07 93 993.2
20260509151519 43 225 2.0 3.0 0.04 0.06 0.06 92 993.3
20260509150520 43 225 2.0 3.0 0.04 0.05 0.05 92 993.2
20260509145522 43 225 3.0 4.0 0.03 0.04 0.04 91 993.2
20260509144519 43 0.0 1.0 0.04 0.04 0.04 89 993.0
20260509143520 43 0.0 0.0 0.03 0.03 0.03 89 993.0
20260509142520 43 225 1.0 2.0 0.03 0.03 0.03 87 993.0
20260509141519 43 0.0 0.0 0.02 0.02 0.02 86 993.1
20260509140519 43 225 1.0 3.0 0.01 0.01 0.01 85 993.1
20260509135519 44 225 1.0 2.0 0.01 0.01 0.01 82 993.0
20260509134519 45 225 2.0 4.0 0.00 0.00 0.00 80 993.2
20260509133519 46 225 2.0 5.0 0.00 0.00 0.00 75 993.2
20260509132520 46 270 1.0 2.0 0.00 0.00 0.00 71 993.0
20260509131519 47 203 2.0 5.0 0.00 0.00 0.00 69 993.0
20260509130519 48 203 3.0 4.0 0.00 0.00 0.00 66 993.2
20260509125519 48 248 1.0 4.0 0.00 0.00 0.00 66 992.9
20260509124519 47 180 6.0 12.0 0.00 0.00 0.00 65 993.1
20260509123519 47 180 2.0 5.0 0.00 0.00 0.00 66 993.1
20260509122521 46 203 2.0 6.0 0.00 0.00 0.00 66 993.4
20260509121519 45 203 1.0 4.0 0.00 0.00 0.00 68 993.4
20260509120519 45 225 2.0 5.0 0.00 0.00 0.00 70 993.5
20260509115521 44 0.0 1.0 0.00 0.00 0.00 70 993.6
20260509114523 43 225 1.0 2.0 0.00 0.00 0.00 73 993.5
20260509113519 43 225 1.0 2.0 0.00 0.00 0.00 73 993.4
20260509112519 43 0.0 0.0 0.00 0.00 0.00 72 993.5
20260509111519 44 0.0 1.0 0.00 0.00 0.00 70 993.6
20260509110519 43 0.0 1.0 0.00 0.00 0.00 69 993.5
20260509105519 43 0.0 1.0 0.00 0.00 0.00 69 993.5
20260509104519 42 0.0 2.0 0.00 0.00 0.00 71 993.4
20260509103519 42 203 1.0 3.0 0.00 0.00 0.00 71 993.4
20260509102519 41 225 1.0 3.0 0.00 0.00 0.00 73 993.3
20260509101519 40 0.0 2.0 0.00 0.00 0.00 75 993.3
20260509100521 39 203 2.0 5.0 0.00 0.00 0.00 78 993.4
20260509095521 38 180 2.0 6.0 0.00 0.00 0.00 80 993.3
20260509094519 37 180 2.0 5.0 0.00 0.00 0.00 81 993.2
20260509093519 36 203 1.0 3.0 0.00 0.00 0.00 83 993.0
20260509092519 36 0.0 0.0 0.00 0.00 0.00 83 992.9
20260509091519 36 0.0 0.0 0.00 0.00 0.00 83 992.8
20260509090521 37 0.0 0.0 0.00 0.00 0.00 81 992.9
20260509085521 37 0.0 0.0 0.00 0.00 0.00 81 992.7
20260509084519 37 203 1.0 3.0 0.00 0.00 0.00 79 992.6
20260509083521 37 0.0 0.0 0.00 0.00 0.00 78 992.3
20260509082519 38 0.0 0.0 0.00 0.00 0.00 77 992.4
20260509081519 39 0.0 0.0 0.00 0.00 0.00 75 992.6
20260509080519 40 0.0 0.0 0.00 0.00 0.00 72 992.5
20260509075519 41 0.0 0.0 0.00 0.00 0.00 68 992.4
20260509074720 41 0.0 0.0 0.00 0.00 0.00 68 992.5
20260509074319 41 0.0 0.0 0.00 0.00 0.00 69 992.5
20260509073522 40 0.0 0.0 0.00 0.00 0.00 70 992.4
20260509073219 40 0.0 0.0 0.00 0.00 0.00 70 992.4
20260509072219 40 0.0 0.0 0.00 0.00 0.00 70 992.5
20260509071219 41 0.0 0.0 0.00 0.00 0.00 70 992.7
20260509070219 41 0.0 0.0 0.00 0.00 0.00 71 992.6
20260509065219 41 203 2.0 4.0 0.00 0.00 0.00 71 992.9
20260509064219 41 203 1.0 3.0 0.00 0.00 0.00 71 992.9
20260509063219 41 0.0 0.0 0.00 0.00 0.00 70 993.0
20260509062219 41 0.0 1.0 0.00 0.00 0.00 69 993.1
20260509061219 41 0.0 1.0 0.00 0.00 0.00 70 993.1
20260509060219 41 0.0 2.0 0.00 0.00 0.00 71 993.2
20260509055218 41 225 1.0 2.0 0.00 0.00 0.00 71 993.2
20260509054219 41 225 1.0 3.0 0.00 0.00 0.00 70 993.3
20260509053220 41 0.0 0.0 0.00 0.00 0.00 70 993.2
20260509052218 42 0.0 1.0 0.00 0.00 0.00 69 993.0
20260509051219 42 0.0 1.0 0.00 0.00 0.00 69 993.0
20260509050218 42 0.0 0.0 0.00 0.00 0.00 69 992.9
20260509045219 42 0.0 1.0 0.00 0.00 0.00 68 992.8
20260509044218 42 225 1.0 2.0 0.00 0.00 0.00 68 992.8
20260509043219 42 0.0 1.0 0.00 0.00 0.00 68 992.7
20260509042218 42 0.0 1.0 0.00 0.00 0.00 67 992.6
20260509041218 43 0.0 0.0 0.00 0.00 0.00 66 992.7
20260509040218 43 0.0 0.0 0.00 0.00 0.00 65 992.8
20260509035220 44 0.0 1.0 0.00 0.00 0.00 64 992.9
20260509034219 44 0.0 1.0 0.00 0.00 0.00 64 992.9
20260509033219 44 225 1.0 2.0 0.00 0.00 0.00 63 992.7
20260509032220 44 225 2.0 3.0 0.00 0.00 0.00 64 992.6
20260509031218 44 225 1.0 3.0 0.00 0.00 0.00 64 992.5
20260509030218 43 225 1.0 3.0 0.00 0.00 0.00 65 992.3
20260509025218 43 0.0 0.0 0.00 0.00 0.00 66 992.2
20260509024218 43 0.0 0.0 0.00 0.00 0.00 66 992.1
20260509023218 44 0.0 2.0 0.00 0.00 0.00 66 992.1
20260509022219 44 0.0 1.0 0.00 0.00 0.00 65 992.0
20260509021218 44 0.0 3.0 0.00 0.00 0.00 65 992.0
20260509020218 45 0.0 1.0 0.00 0.00 0.00 64 991.9
20260509015218 45 0.0 0.0 0.00 0.00 0.00 63 991.8
20260509014218 45 0.0 3.0 0.00 0.00 0.00 63 991.7
20260509013218 45 0.0 1.0 0.00 0.00 0.00 63 991.5
20260509012218 46 0.0 2.0 0.00 0.00 0.00 62 991.5
20260509011221 46 248 2.0 3.0 0.00 0.00 0.00 62 991.3
20260509010218 46 248 2.0 3.0 0.00 0.00 0.00 62 991.1
20260509005218 46 248 1.0 3.0 0.00 0.00 0.00 62 990.8
20260509004218 46 0.0 0.0 0.00 0.00 0.00 62 990.7
20260509003218 46 248 1.0 5.0 0.00 0.00 0.00 62 990.6
20260509002223 47 248 2.0 5.0 0.00 0.00 0.00 60 990.4
20260509001220 47 248 4.0 7.0 0.00 0.00 0.00 60 990.4
20260509000219 47 248 2.0 4.0 0.00 0.00 0.00 60 990.3
20260508235218 47 270 3.0 4.0 0.00 0.00 0.00 60 990.2
20260508234220 47 270 4.0 6.0 0.00 0.00 0.00 59 990.0